Time,TemperatureF,DewpointF,PressureIn,WindDirection,WindDirectionDegrees,WindSpeedMPH,WindSpeedGustMPH,Humidity,HourlyPrecipIn,Conditions,Clouds,dailyrainin,SoftwareType,DateUTC
2016-12-03 00:00:00,36.5,36.3,30.26,NW,315,0.0,0.7,99,0.00,,,0.02,fowsr,2016-12-02 23:00:00,
2016-12-03 00:10:00,36.5,36.3,30.26,West,270,0.0,0.0,99,0.00,,,0.02,fowsr,2016-12-02 23:10:00,
2016-12-03 00:20:00,36.5,36.3,30.26,West,270,0.0,0.0,99,0.00,,,0.02,fowsr,2016-12-02 23:20:00,
2016-12-03 00:30:00,36.1,36.0,30.26,SW,225,0.0,0.0,99,0.00,,,0.02,fowsr,2016-12-02 23:30:00,
2016-12-03 00:40:00,36.3,36.1,30.25,West,270,0.0,0.7,99,0.00,,,0.02,fowsr,2016-12-02 23:40:00,
2016-12-03 00:50:00,36.3,36.1,30.26,East,90,0.0,0.0,99,0.00,,,0.02,fowsr,2016-12-02 23:50:00,
2016-12-03 01:00:00,36.0,35.8,30.26,South,180,0.0,0.0,99,0.00,,,0.02,fowsr,2016-12-03 00:00:00,
2016-12-03 01:10:00,35.8,35.6,30.27,West,270,0.0,0.0,99,0.00,,,0.02,fowsr,2016-12-03 00:10:00,
2016-12-03 01:20:00,35.8,35.6,30.26,West,270,0.0,0.0,99,0.00,,,0.02,fowsr,2016-12-03 00:20:00,
2016-12-03 01:30:00,35.4,35.2,30.26,West,270,0.0,0.0,99,0.00,,,0.02,fowsr,2016-12-03 00:30:00,
2016-12-03 01:40:00,35.2,35.1,30.26,East,90,0.0,0.7,99,0.00,,,0.02,fowsr,2016-12-03 00:40:00,
2016-12-03 01:50:00,35.1,34.9,30.26,SE,135,0.0,0.0,99,0.00,,,0.02,fowsr,2016-12-03 00:50:00,
2016-12-03 02:10:00,34.0,33.8,30.26,West,270,0.0,0.0,99,0.00,,,0.02,fowsr,2016-12-03 01:10:00,
2016-12-03 02:20:00,33.3,33.1,30.26,West,270,0.0,0.0,99,0.00,,,0.02,fowsr,2016-12-03 01:20:00,
2016-12-03 02:30:00,33.4,33.3,30.26,West,270,0.0,0.0,99,0.00,,,0.02,fowsr,2016-12-03 01:30:00,
2016-12-03 02:40:00,33.6,33.4,30.26,East,90,0.0,0.0,99,0.00,,,0.02,fowsr,2016-12-03 01:40:00,
2016-12-03 02:50:00,34.2,34.0,30.26,South,180,0.0,0.0,99,0.00,,,0.02,fowsr,2016-12-03 01:50:00,
2016-12-03 03:00:00,34.0,33.8,30.26,NW,315,0.0,0.0,99,0.00,,,0.02,fowsr,2016-12-03 02:00:00,
2016-12-03 03:10:00,34.0,33.8,30.26,West,270,0.0,0.7,99,0.00,,,0.02,fowsr,2016-12-03 02:10:00,
2016-12-03 03:20:00,34.0,33.8,30.26,South,180,0.0,0.0,99,0.00,,,0.02,fowsr,2016-12-03 02:20:00,
2016-12-03 03:30:00,33.8,33.6,30.27,East,90,0.0,0.0,99,0.00,,,0.02,fowsr,2016-12-03 02:30:00,
2016-12-03 03:40:00,33.8,33.6,30.27,West,270,0.0,0.7,99,0.00,,,0.02,fowsr,2016-12-03 02:40:00,
2016-12-03 03:44:00,33.8,33.6,30.27,West,270,0.0,0.0,99,0.00,,,0.02,fowsr,2016-12-03 02:44:00,
2016-12-03 03:54:00,33.8,33.6,30.26,West,270,0.0,0.0,99,0.00,,,0.02,fowsr,2016-12-03 02:54:00,
2016-12-03 04:04:00,33.8,33.6,30.26,West,270,0.0,0.0,99,0.00,,,0.02,fowsr,2016-12-03 03:04:00,
2016-12-03 04:14:00,33.6,33.4,30.26,West,270,0.0,0.0,99,0.00,,,0.02,fowsr,2016-12-03 03:14:00,
2016-12-03 04:24:00,33.4,33.3,30.26,West,270,0.0,0.0,99,0.00,,,0.02,fowsr,2016-12-03 03:24:00,
2016-12-03 04:34:00,33.1,32.9,30.26,West,270,0.0,0.0,99,0.00,,,0.02,fowsr,2016-12-03 03:34:00,
2016-12-03 04:44:00,32.7,32.5,30.26,West,270,0.0,0.0,99,0.00,,,0.02,fowsr,2016-12-03 03:44:00,
2016-12-03 04:54:00,32.2,32.0,30.26,West,270,0.0,0.0,99,0.00,,,0.02,fowsr,2016-12-03 03:54:00,
2016-12-03 05:04:00,31.8,31.6,30.26,West,270,0.0,0.0,99,0.00,,,0.02,fowsr,2016-12-03 04:04:00,
2016-12-03 05:14:00,31.1,30.9,30.27,SE,135,0.0,0.0,99,0.00,,,0.02,fowsr,2016-12-03 04:14:00,
2016-12-03 05:24:00,30.2,30.0,30.26,SE,135,0.0,0.0,99,0.00,,,0.02,fowsr,2016-12-03 04:24:00,
2016-12-03 05:34:00,30.2,30.0,30.26,SE,135,0.0,0.0,99,0.00,,,0.02,fowsr,2016-12-03 04:34:00,
2016-12-03 05:44:00,30.2,30.0,30.27,SE,135,0.0,0.0,99,0.00,,,0.02,fowsr,2016-12-03 04:44:00,
2016-12-03 05:54:00,30.7,30.6,30.27,NE,45,0.0,0.0,99,0.00,,,0.02,fowsr,2016-12-03 04:54:00,
2016-12-03 06:04:00,30.7,30.6,30.27,East,90,0.0,0.0,99,0.00,,,0.02,fowsr,2016-12-03 05:04:00,
2016-12-03 06:14:00,30.4,30.2,30.27,North,2880,0.0,0.0,99,0.00,,,0.02,fowsr,2016-12-03 05:14:00,
2016-12-03 06:24:00,30.4,30.2,30.27,North,2880,0.0,0.0,99,0.00,,,0.02,fowsr,2016-12-03 05:24:00,
2016-12-03 06:34:00,29.8,29.7,30.27,North,2880,0.0,0.0,99,0.00,,,0.02,fowsr,2016-12-03 05:34:00,
2016-12-03 06:44:00,29.7,29.5,30.27,SE,135,0.0,0.0,99,0.00,,,0.02,fowsr,2016-12-03 05:44:00,
2016-12-03 06:54:00,30.0,29.8,30.28,South,180,0.0,0.7,99,0.00,,,0.02,fowsr,2016-12-03 05:54:00,
2016-12-03 07:04:00,30.0,29.8,30.28,NE,45,0.0,0.0,99,0.00,,,0.02,fowsr,2016-12-03 06:04:00,
2016-12-03 07:14:00,30.7,30.6,30.27,East,90,0.0,0.0,99,0.00,,,0.02,fowsr,2016-12-03 06:14:00,
2016-12-03 07:24:00,30.9,30.7,30.27,West,270,0.0,0.0,99,0.00,,,0.02,fowsr,2016-12-03 06:24:00,
2016-12-03 07:44:00,31.8,31.6,30.28,NE,45,0.0,0.0,99,0.00,,,0.02,fowsr,2016-12-03 06:44:00,
2016-12-03 07:54:00,32.2,32.0,30.28,NE,45,0.0,0.0,99,0.00,,,0.02,fowsr,2016-12-03 06:54:00,
2016-12-03 08:10:00,32.5,32.4,30.29,SE,135,0.0,0.0,99,0.00,,,0.02,fowsr,2016-12-03 07:10:00,
2016-12-03 08:20:00,32.5,32.4,30.29,SW,225,0.0,0.0,99,0.00,,,0.02,fowsr,2016-12-03 07:20:00,
2016-12-03 08:30:00,32.5,32.4,30.29,East,90,0.0,0.0,99,0.00,,,0.02,fowsr,2016-12-03 07:30:00,
2016-12-03 08:40:00,32.4,32.2,30.29,East,90,0.0,0.0,99,0.00,,,0.02,fowsr,2016-12-03 07:40:00,
2016-12-03 08:54:00,33.1,32.9,30.29,South,180,0.0,0.0,99,0.00,,,0.02,fowsr,2016-12-03 07:54:00,
2016-12-03 09:04:00,33.1,32.9,30.29,South,180,0.0,0.0,99,0.00,,,0.02,fowsr,2016-12-03 08:04:00,
2016-12-03 09:14:00,32.9,32.7,30.30,East,90,0.0,0.0,99,0.00,,,0.02,fowsr,2016-12-03 08:14:00,
2016-12-03 09:24:00,34.9,34.7,30.30,SE,135,0.0,0.0,99,0.00,,,0.02,fowsr,2016-12-03 08:24:00,
2016-12-03 09:34:00,37.0,36.9,30.29,NW,315,0.0,0.0,99,0.00,,,0.02,fowsr,2016-12-03 08:34:00,
2016-12-03 09:44:00,38.3,38.1,30.30,West,270,0.0,0.0,99,0.00,,,0.02,fowsr,2016-12-03 08:44:00,
2016-12-03 09:54:00,40.6,40.5,30.31,North,2880,0.0,0.0,99,0.00,,,0.02,fowsr,2016-12-03 08:54:00,
2016-12-03 10:04:00,41.2,41.0,30.30,West,270,0.0,0.0,99,0.00,,,0.02,fowsr,2016-12-03 09:04:00,
2016-12-03 10:14:00,42.8,42.6,30.31,East,90,0.0,0.0,99,0.00,,,0.02,fowsr,2016-12-03 09:14:00,
2016-12-03 10:24:00,43.9,43.7,30.31,West,270,0.0,0.0,99,0.00,,,0.02,fowsr,2016-12-03 09:24:00,
2016-12-03 10:44:00,47.7,47.5,30.32,NW,315,0.0,0.7,99,0.00,,,0.02,fowsr,2016-12-03 09:44:00,
2016-12-03 10:54:00,48.0,47.8,30.32,North,2880,0.0,0.0,99,0.00,,,0.02,fowsr,2016-12-03 09:54:00,
2016-12-03 11:04:00,48.0,47.8,30.32,West,270,0.0,0.0,99,0.00,,,0.02,fowsr,2016-12-03 10:04:00,
2016-12-03 11:14:00,48.9,48.7,30.32,West,270,0.0,0.0,99,0.00,,,0.02,fowsr,2016-12-03 10:14:00,
2016-12-03 11:24:00,47.5,47.3,30.32,NW,315,0.0,0.7,99,0.00,,,0.02,fowsr,2016-12-03 10:24:00,
2016-12-03 11:40:00,44.6,44.4,30.31,NE,45,0.0,0.0,99,0.00,,,0.02,fowsr,2016-12-03 10:40:00,
2016-12-03 11:50:00,42.8,42.6,30.31,NW,315,0.0,0.0,99,0.00,,,0.02,fowsr,2016-12-03 10:50:00,
2016-12-03 12:00:00,41.9,41.7,30.31,West,270,0.0,0.7,99,0.00,,,0.02,fowsr,2016-12-03 11:00:00,
2016-12-03 12:10:00,41.2,41.0,30.31,North,2880,0.0,0.0,99,0.00,,,0.02,fowsr,2016-12-03 11:10:00,
2016-12-03 12:20:00,41.2,41.0,30.31,West,270,0.0,0.7,99,0.00,,,0.01,fowsr,2016-12-03 11:20:00,
2016-12-03 12:30:00,41.2,41.0,30.30,NW,315,0.0,0.7,99,0.00,,,0.01,fowsr,2016-12-03 11:30:00,
2016-12-03 12:40:00,41.4,41.2,30.31,NW,315,0.0,0.7,99,0.00,,,0.01,fowsr,2016-12-03 11:40:00,
2016-12-03 12:50:00,41.5,41.3,30.31,NW,315,0.0,0.0,99,0.00,,,0.01,fowsr,2016-12-03 11:50:00,
2016-12-03 12:54:00,41.5,41.3,30.31,West,270,0.0,0.0,99,0.00,,,0.01,fowsr,2016-12-03 11:54:00,
2016-12-03 13:04:00,41.7,41.5,30.30,NW,315,0.0,0.7,99,0.00,,,0.00,fowsr,2016-12-03 12:04:00,
2016-12-03 13:14:00,41.9,41.7,30.31,North,2880,0.0,0.0,99,0.00,,,0.00,fowsr,2016-12-03 12:14:00,
2016-12-03 13:24:00,42.3,42.1,30.31,West,270,0.0,0.7,99,0.00,,,0.00,fowsr,2016-12-03 12:24:00,
2016-12-03 13:34:00,42.4,42.2,30.30,NW,315,0.0,0.0,99,0.00,,,0.00,fowsr,2016-12-03 12:34:00,
2016-12-03 13:44:00,42.6,42.4,30.29,NW,315,0.0,0.0,99,0.00,,,0.00,fowsr,2016-12-03 12:44:00,
2016-12-03 13:54:00,42.8,42.6,30.29,NW,315,0.0,0.7,99,0.00,,,0.00,fowsr,2016-12-03 12:54:00,
2016-12-03 14:04:00,42.6,42.4,30.29,NW,315,0.0,0.7,99,0.00,,,0.00,fowsr,2016-12-03 13:04:00,
2016-12-03 14:14:00,42.4,42.2,30.29,NE,45,0.0,0.0,99,0.00,,,0.00,fowsr,2016-12-03 13:14:00,
2016-12-03 14:24:00,42.6,42.4,30.29,NW,315,0.0,0.0,99,0.00,,,0.00,fowsr,2016-12-03 13:24:00,
2016-12-03 14:34:00,42.8,42.6,30.29,NW,315,0.0,0.7,99,0.00,,,0.00,fowsr,2016-12-03 13:34:00,
2016-12-03 14:44:00,43.0,42.8,30.29,NW,315,0.0,0.7,99,0.00,,,0.00,fowsr,2016-12-03 13:44:00,
2016-12-03 14:54:00,43.0,42.8,30.29,NW,315,0.0,0.0,99,0.00,,,0.00,fowsr,2016-12-03 13:54:00,
2016-12-03 15:04:00,43.0,42.8,30.29,NW,315,0.0,0.7,99,0.00,,,0.00,fowsr,2016-12-03 14:04:00,
2016-12-03 15:14:00,42.4,42.2,30.29,North,2880,0.0,0.7,99,0.00,,,0.00,fowsr,2016-12-03 14:14:00,
2016-12-03 15:24:00,42.3,42.1,30.29,NE,45,0.0,0.0,99,0.00,,,0.00,fowsr,2016-12-03 14:24:00,
2016-12-03 15:34:00,41.9,41.7,30.29,West,270,0.0,0.0,99,0.00,,,0.00,fowsr,2016-12-03 14:34:00,
2016-12-03 15:44:00,41.9,41.7,30.29,West,270,0.0,0.0,99,0.00,,,0.00,fowsr,2016-12-03 14:44:00,
2016-12-03 15:54:00,41.5,41.3,30.29,North,2880,0.0,0.0,99,0.00,,,0.00,fowsr,2016-12-03 14:54:00,
2016-12-03 16:04:00,41.2,41.0,30.29,West,270,0.0,0.0,99,0.00,,,0.00,fowsr,2016-12-03 15:04:00,
2016-12-03 16:14:00,40.6,40.5,30.29,West,270,0.0,0.0,99,0.00,,,0.00,fowsr,2016-12-03 15:14:00,
2016-12-03 16:24:00,40.5,40.3,30.29,SW,225,0.0,0.0,99,0.00,,,0.00,fowsr,2016-12-03 15:24:00,
2016-12-03 16:34:00,39.7,39.6,30.29,SW,225,0.0,0.0,99,0.00,,,0.00,fowsr,2016-12-03 15:34:00,
2016-12-03 16:44:00,39.2,39.0,30.29,SW,225,0.0,0.0,99,0.00,,,0.00,fowsr,2016-12-03 15:44:00,
2016-12-03 16:54:00,38.8,38.7,30.29,SW,225,0.0,0.0,99,0.00,,,0.00,fowsr,2016-12-03 15:54:00,
2016-12-03 17:04:00,38.8,38.7,30.30,North,2880,0.0,0.0,99,0.00,,,0.00,fowsr,2016-12-03 16:04:00,
2016-12-03 17:14:00,38.1,37.9,30.30,North,2880,0.0,0.0,99,0.00,,,0.00,fowsr,2016-12-03 16:14:00,
2016-12-03 17:24:00,37.8,37.6,30.30,North,2880,0.0,0.0,99,0.00,,,0.00,fowsr,2016-12-03 16:24:00,
2016-12-03 17:34:00,37.2,37.0,30.30,East,90,0.0,0.0,99,0.00,,,0.00,fowsr,2016-12-03 16:34:00,
2016-12-03 17:44:00,36.9,36.7,30.30,East,90,0.0,0.0,99,0.00,,,0.00,fowsr,2016-12-03 16:44:00,
2016-12-03 17:54:00,36.9,36.7,30.30,East,90,0.0,0.0,99,0.00,,,0.00,fowsr,2016-12-03 16:54:00,
2016-12-03 18:04:00,36.7,36.5,30.31,East,90,0.0,0.0,99,0.00,,,0.00,fowsr,2016-12-03 17:04:00,
2016-12-03 18:14:00,36.5,36.3,30.31,East,90,0.0,0.0,99,0.00,,,0.00,fowsr,2016-12-03 17:14:00,
2016-12-03 18:24:00,36.1,36.0,30.30,SE,135,0.0,0.0,99,0.00,,,0.00,fowsr,2016-12-03 17:24:00,
2016-12-03 18:34:00,35.4,35.2,30.31,NE,45,0.0,0.0,99,0.00,,,0.00,fowsr,2016-12-03 17:34:00,
2016-12-03 18:44:00,34.7,34.5,30.31,NE,45,0.0,0.0,99,0.00,,,0.00,fowsr,2016-12-03 17:44:00,
2016-12-03 18:54:00,35.1,34.9,30.31,North,2880,0.0,0.0,99,0.00,,,0.00,fowsr,2016-12-03 17:54:00,
2016-12-03 19:04:00,35.2,35.1,30.31,West,270,0.0,0.0,99,0.00,,,0.00,fowsr,2016-12-03 18:04:00,
2016-12-03 19:14:00,34.9,34.7,30.31,NE,45,0.0,0.0,99,0.00,,,0.00,fowsr,2016-12-03 18:14:00,
2016-12-03 19:24:00,34.9,34.7,30.31,East,90,0.0,0.0,99,0.00,,,0.00,fowsr,2016-12-03 18:24:00,
2016-12-03 19:34:00,34.9,34.7,30.31,East,90,0.0,0.0,99,0.00,,,0.00,fowsr,2016-12-03 18:34:00,
2016-12-03 19:44:00,34.7,34.5,30.31,NE,45,0.0,0.0,99,0.00,,,0.00,fowsr,2016-12-03 18:44:00,
2016-12-03 19:54:00,34.5,34.3,30.31,NE,45,0.0,0.0,99,0.00,,,0.00,fowsr,2016-12-03 18:54:00,
2016-12-03 20:04:00,34.3,34.2,30.30,NE,45,0.0,0.0,99,0.00,,,0.00,fowsr,2016-12-03 19:04:00,
2016-12-03 20:24:00,34.3,34.2,30.31,SE,135,0.0,0.0,99,0.00,,,0.00,fowsr,2016-12-03 19:24:00,
2016-12-03 20:34:00,34.2,34.0,30.31,NW,315,0.0,0.0,99,0.00,,,0.00,fowsr,2016-12-03 19:34:00,
2016-12-03 20:44:00,34.0,33.8,30.31,SE,135,0.0,0.0,99,0.00,,,0.00,fowsr,2016-12-03 19:44:00,
2016-12-03 20:54:00,33.6,33.4,30.31,NE,45,0.0,0.0,99,0.00,,,0.00,fowsr,2016-12-03 19:54:00,
2016-12-03 21:04:00,33.4,33.3,30.31,East,90,0.0,0.0,99,0.00,,,0.00,fowsr,2016-12-03 20:04:00,